This demonstration page uses our WeatherBlox Daily Observations layout. Learn more.

Left ArrowRight Arrow

Hourly Observations for August 25, 2022

Temp ( °F °C ) Dew Point ( °F °C ) Humidity (%) Winds ( mph kmh ) Pressure ( in mb ) Visibility ( mi km ) Precip ( " mm )
12:55 am 00:55 Clear 74 23.3 65 18.6 75 75 Calm 30.03 1017 10 16 0.00 0.00
1:55 am 01:55 Mostly Clear 72 22.3 65 18.5 79 79 Calm 30.05 1018 10 16 0.00 0.00
2:55 am 02:55 Partly Cloudy 71 21.8 65 18.6 82 82 Calm 30.04 1017 10 16 0.00 0.00
3:41 am 03:41 Mostly Cloudy with Light Rain 72 22 66 19 83 83 WNW 3 6 30.04 1017 10 16 0.00 0.00
3:55 am 03:55 Mostly Cloudy with Light Rain 72 22.4 67 19.3 83 83 N 5 7 30.04 1017 10 16 0.00 0.00
3:59 am 03:59 Partly Cloudy 72 22 66 19 83 83 N 6 9 30.06 1018 10 16 0.00 0.00
4:55 am 04:55 Mostly Clear 71 21.6 66 19.1 86 86 Calm 30.02 1016 10 16 0.00 0.00
5:55 am 05:55 Mostly Cloudy 70 21.3 66 19 87 87 Calm 30.04 1017 10 16 0.00 0.00
6:55 am 06:55 Cloudy 72 22.2 66 19 82 82 NNW 7 11 30.09 1019 10 16 0.00 0.00
7:06 am 07:06 Cloudy with Thunderstorms 72 22 66 19 83 83 WNW 16 26 30.13 1020 9 14 0.00 0.00
7:42 am 07:42 Cloudy with Rain 70 21 64 18 83 83 NE 9 15 30.11 1020 8 13 0.00 0.00
7:56 am 07:56 Mostly Cloudy with Light Rain 69 20.8 65 18.4 86 86 NE 7 11 30.10 1019 10 16 0.22 5.59
8:25 am 08:25 Mostly Cloudy 70 21 66 19 88 88 ESE 3 6 30.10 1019 10 16 0.00 0.00
8:55 am 08:55 Cloudy 70 21 66 18.7 87 87 Calm 30.09 1019 10 16 0.06 1.52
9:55 am 09:55 Mostly Cloudy 74 23.6 66 19.1 76 76 Calm 30.11 1020 10 16 0.00 0.00
10:55 am 10:55 Mostly Cloudy 76 24.2 68 19.9 77 77 NNE 5 7 30.12 1020 10 16 0.00 0.00
11:55 am 11:55 Partly Cloudy 79 26.3 69 20.8 72 72 NNW 5 7 30.12 1020 10 16 0.00 0.00
12:55 pm 12:55 Mostly Sunny 82 28 70 21.3 67 67 NW 6 9 30.10 1019 10 16 0.00 0.00
1:55 pm 13:55 Sunny 84 28.8 68 20.2 60 60 ENE 3 6 30.08 1019 10 16 0.00 0.00
2:55 pm 14:55 Mostly Sunny 84 29 69 20.4 60 60 ENE 6 9 30.07 1018 10 16 0.00 0.00
3:55 pm 15:55 Mostly Cloudy 87 30.5 66 18.9 50 50 Calm 30.06 1018 10 16 0.00 0.00
4:55 pm 16:55 Mostly Cloudy 86 30.2 65 18.6 50 50 NNW 3 6 30.05 1018 10 16 0.00 0.00
5:55 pm 17:55 Mostly Cloudy 85 29.6 66 19 53 53 N 3 6 30.06 1018 10 16 0.00 0.00
6:55 pm 18:55 Mostly Cloudy 84 29.1 65 18.5 53 53 NNE 7 11 30.06 1018 10 16 0.00 0.00
7:55 pm 19:55 Partly Cloudy 80 26.6 65 18.4 61 61 NE 8 13 30.07 1018 10 16 0.00 0.00
8:55 pm 20:55 Partly Cloudy 76 24.5 65 18.2 68 68 NE 7 11 30.09 1019 10 16 0.00 0.00
9:55 pm 21:55 Partly Cloudy 74 23.2 65 18.3 74 74 E 5 7 30.11 1020 10 16 0.00 0.00
10:55 pm 22:55 Clear 72 22.3 64 17.8 76 76 NE 3 6 30.10 1019 10 16 0.00 0.00
11:55 pm 23:55 Clear 71 21.6 63 17.4 77 77 Calm 30.11 1020 10 16 0.00 0.00

Powered by AerisWeather